GFSGBSN_925_temp_114.txt.gz
Temp
10 10 9 9 9 9 10 10 10 11 12 12 12 12 12 12 11 12 12 12 11 10 9 10 10 11 12 18 19 19 19 19 19 18 21 23 24 24 24 25 26 26 27 28 28 28 27
9 9 9 9 9 9 9 9 9 9 10 10 11 12 12 12 11 11 11 11 11 10 9 9 10 10 12 15 20 20 19 19 18 20 21 23 23 24 24 24 24 25 26 26 27 27 27
8 9 9 9 8 8 8 9 8 8 9 9 10 10 10 11 11 11 11 11 11 10 9 8 9 9 13 15 19 20 21 20 21 21 22 23 23 23 23 23 25 25 24 25 26 26 26
8 8 8 8 8 8 8 8 9 9 9 9 10 10 10 10 9 10 10 10 11 10 8 8 9 9 12 17 18 19 19 20 20 20 21 21 22 22 22 23 23 23 23 23 25 27 27
8 7 7 8 8 8 8 8 8 8 8 9 9 10 10 10 10 10 10 10 9 8 8 8 8 11 14 18 18 19 19 20 21 21 21 21 22 21 22 21 21 22 21 23 25 28 28
8 7 7 8 8 8 8 8 8 8 8 8 9 9 9 10 10 9 9 9 8 7 8 8 10 12 15 19 21 21 21 20 21 22 21 21 20 20 21 20 20 22 24 25 26 28 29
7 7 7 7 8 8 8 8 8 8 8 8 8 8 9 9 9 9 9 8 8 10 9 14 18 18 22 22 21 21 21 21 22 21 20 21 19 19 21 22 23 23 23 23 25 26 26
7 7 7 7 7 7 7 7 7 8 8 8 8 8 9 9 8 9 9 9 14 14 14 14 17 18 19 20 20 21 22 20 20 19 21 20 20 21 22 23 23 23 22 23 24 25 25
7 7 7 7 7 7 7 7 7 7 8 8 8 8 8 8 8 8 9 10 12 13 13 16 19 19 20 20 19 20 22 21 20 19 20 20 21 23 23 22 22 23 22 22 23 24 25
7 7 7 7 7 7 7 7 7 7 8 8 8 8 8 8 8 8 8 10 11 13 12 17 20 20 20 21 19 21 21 21 20 20 20 20 22 22 22 22 23 21 23 22 22 22 20
7 7 7 7 7 7 7 7 7 7 8 8 8 8 7 7 9 8 9 9 11 11 13 22 21 21 21 20 22 22 22 21 19 19 20 19 20 20 20 21 22 21 22 20 20 18 18
6 6 7 6 6 6 7 7 7 7 8 8 8 8 8 8 8 9 8 10 11 10 13 19 21 20 19 20 20 21 22 22 21 20 20 20 22 21 20 20 21 21 20 20 20 19 16
6 6 6 6 6 6 7 7 7 7 7 8 8 8 7 8 9 8 10 9 10 12 19 19 21 21 20 20 20 20 19 20 19 18 18 20 21 22 21 19 20 20 18 16 14 15 16
5 6 6 6 6 6 6 6 6 7 7 7 8 8 8 8 9 8 9 9 11 17 18 22 21 22 20 20 20 21 20 19 21 20 19 18 17 21 21 19 18 18 18 13 13 15 17
5 5 5 5 6 6 6 6 6 7 7 7 7 8 9 8 8 9 9 10 14 17 20 20 20 20 20 21 20 21 20 20 21 21 18 17 17 19 19 20 19 17 17 18 14 14 15
4 5 5 5 5 5 6 6 6 7 7 7 6 6 5 7 7 8 9 11 15 18 19 20 19 20 18 20 20 20 20 21 20 21 21 19 16 16 18 18 18 18 19 16 12 13 15
4 5 5 5 5 5 5 5 5 6 7 8 6 6 4 6 6 7 9 11 14 18 19 18 19 19 19 19 19 18 18 21 20 20 19 19 16 14 16 16 16 17 16 16 16 15 13
4 4 4 4 5 5 5 5 5 6 9 7 6 6 4 5 6 5 8 10 13 17 18 18 19 19 19 18 17 19 18 17 17 18 16 13 14 13 14 17 18 17 17 17 14 14 15
4 4 4 4 4 4 5 5 5 6 5 5 4 3 3 5 7 8 10 10 12 14 16 17 17 17 18 16 16 18 18 15 15 15 15 14 11 13 14 15 16 15 16 16 16 15 14
3 3 3 4 4 4 5 5 5 6 4 4 5 5 3 3 6 9 9 9 11 13 15 15 16 17 17 16 16 15 16 14 14 15 13 14 13 12 12 14 15 14 15 16 15 13 14
3 3 3 3 3 4 4 5 5 5 4 4 5 6 8 5 5 7 9 10 11 11 12 13 13 15 16 15 15 13 15 13 13 12 13 14 12 14 15 16 16 16 15 16 15 15 13
3 3 3 3 3 4 4 5 5 4 5 4 5 7 7 9 9 8 9 10 11 11 12 11 13 14 15 13 14 13 14 14 12 13 12 14 11 11 12 14 15 14 15 15 15 15 15
3 3 3 3 3 3 4 5 4 4 4 3 4 6 8 8 8 8 9 11 12 12 12 14 13 13 12 14 15 15 15 15 15 13 12 13 12 11 11 13 13 12 13 14 15 15 15
3 3 3 3 3 3 4 5 4 4 4 4 5 7 7 8 7 9 11 11 11 10 10 12 13 13 13 15 14 15 15 14 14 14 14 12 12 12 11 10 9 13 13 12 11 12 12
2 2 2 3 3 3 4 4 4 4 4 3 4 6 7 9 9 9 7 9 11 11 12 13 13 14 14 13 12 11 11 11 12 13 13 13 12 11 10 10 12 12 8 8 7 9 10
1 3 3 3 3 3 4 4 4 4 4 3 3 5 6 8 9 10 9 10 8 10 10 10 12 13 13 11 12 11 11 12 11 12 13 13 12 10 11 9 9 8 8 10 8 7 6
3 3 3 4 4 3 4 4 4 3 3 3 4 6 5 7 10 11 11 10 12 12 11 10 10 10 12 10 10 11 12 14 11 10 9 10 11 10 10 9 9 7 7 8 6 6 4
3 2 2 3 3 3 3 3 3 3 3 3 6 5 5 8 10 12 12 13 14 14 10 10 10 10 10 10 11 11 11 13 11 8 10 10 10 10 10 9 9 5 7 6 4 4 3
3 3 3 3 3 3 3 3 2 2 3 3 5 4 6 8 8 9 9 9 11 13 13 11 11 11 11 11 13 12 11 11 11 10 10 9 9 8 7 6 5 4 3 3 4 3 2

GFSGBSN_925_temp_117.txt.gz
Temp
10 10 10 9 9 9 10 10 10 11 12 12 12 12 12 12 12 12 11 11 12 11 11 11 11 10 12 14 16 19 19 19 19 19 19 20 20 20 20 21 21 21 22 23 23 23 23
10 9 9 9 9 9 9 9 10 10 10 10 10 11 11 11 11 12 11 11 11 11 10 11 10 10 10 12 17 18 19 19 19 19 19 20 21 21 20 21 20 22 22 22 23 23 23
9 9 9 9 8 9 9 8 9 9 9 9 10 10 10 10 10 10 11 11 11 11 11 11 10 9 10 12 17 19 18 18 20 19 20 21 22 20 20 19 21 21 19 21 21 22 22
8 8 8 8 8 8 8 8 8 9 9 9 9 9 10 10 10 10 9 10 10 10 10 10 9 8 9 15 16 16 18 18 19 20 20 21 21 19 19 19 20 19 19 18 21 22 23
8 8 8 8 8 8 8 8 8 8 8 8 9 9 9 9 9 9 10 9 10 10 9 9 9 8 10 16 16 18 17 18 20 20 20 21 20 18 18 17 16 17 15 18 20 22 23
8 8 7 7 8 8 8 8 8 8 8 8 8 9 8 9 9 8 9 9 9 8 8 8 8 10 12 17 19 19 20 19 19 19 19 18 17 16 15 15 15 17 17 18 19 21 22
8 8 7 7 7 7 8 8 8 8 8 8 8 8 8 8 8 8 9 9 8 7 8 10 12 12 17 20 20 21 21 20 19 18 17 17 15 14 15 17 18 19 19 19 20 22 21
8 7 7 7 7 7 7 7 7 7 7 8 7 8 8 8 8 8 9 10 12 12 11 11 12 14 15 17 17 19 20 19 18 16 17 17 16 17 19 19 19 19 19 19 20 22 22
7 8 7 7 7 7 7 7 7 7 7 7 7 7 8 8 7 8 8 10 11 12 9 13 15 14 15 17 17 17 19 18 17 17 17 16 18 20 20 19 19 20 19 19 20 20 19
7 7 8 7 7 7 7 7 7 7 7 7 7 7 7 7 7 8 8 10 11 11 9 13 17 18 18 18 17 18 19 18 17 17 18 17 19 19 19 19 20 18 20 21 20 17 15
7 7 7 7 7 7 7 7 7 7 7 7 7 7 7 7 8 9 10 10 11 12 9 19 19 21 20 18 20 21 21 18 17 17 17 17 18 18 18 19 20 19 19 18 19 18 16
7 7 7 6 6 7 7 7 6 7 7 7 7 7 7 7 7 9 10 10 11 10 10 17 20 19 18 18 19 20 20 20 19 17 17 17 19 19 19 20 19 19 18 17 16 16 14
6 6 6 6 6 6 6 6 6 7 7 7 7 7 6 6 8 9 10 10 10 9 17 18 19 20 18 18 18 18 18 17 16 15 15 17 18 19 20 18 17 16 15 13 12 13 14
6 6 6 6 6 6 6 6 6 6 7 7 7 6 7 6 8 9 9 9 10 14 16 20 20 20 18 19 18 19 17 16 17 17 16 15 14 19 16 17 15 16 15 11 13 13 13
5 5 5 5 6 6 6 6 6 6 6 6 6 6 7 8 8 9 9 9 10 14 17 17 17 17 17 19 19 18 18 17 18 18 17 16 16 18 18 18 17 16 14 16 13 13 12
5 5 5 5 5 6 5 6 6 6 6 6 5 6 6 9 8 8 8 10 12 15 16 16 16 18 17 18 18 17 17 20 19 19 18 17 16 15 16 17 17 17 17 13 11 12 13
4 4 5 5 5 5 5 5 5 6 5 5 5 6 6 8 7 8 9 10 12 14 16 16 16 16 17 17 17 14 14 15 17 18 17 15 14 14 15 14 14 15 15 15 13 11 11
4 4 4 4 5 5 5 5 5 6 5 6 6 6 5 6 7 5 8 10 13 14 15 15 15 16 15 16 16 15 13 12 13 16 14 12 12 11 13 16 16 15 15 15 11 12 11
4 4 4 4 4 4 5 5 5 5 5 5 5 4 4 5 8 7 9 10 12 13 14 15 15 16 14 16 14 16 14 14 15 15 13 13 9 11 12 14 14 14 15 15 14 13 12
3 3 3 4 4 4 4 4 5 5 5 5 4 5 3 4 6 7 9 9 10 12 12 14 15 14 14 14 15 14 14 13 14 13 13 13 10 11 12 12 12 12 14 14 13 9 12
3 3 3 3 3 3 4 4 4 5 4 5 4 5 5 4 6 6 8 9 10 10 13 13 13 12 13 12 13 13 14 11 13 12 13 11 11 12 13 14 14 12 13 14 14 13 11
3 3 3 3 3 3 3 3 4 4 4 4 4 5 6 7 7 6 7 9 10 11 12 10 11 12 12 12 12 11 13 11 11 11 11 11 9 10 10 12 13 13 14 14 14 14 13
3 3 3 3 3 3 3 3 4 4 4 4 4 5 6 7 7 6 7 8 9 11 11 12 11 11 11 11 12 12 12 12 12 10 9 10 9 8 8 11 11 10 11 12 13 12 11
3 3 3 3 3 3 3 3 4 4 4 4 5 6 6 6 7 7 9 9 10 11 10 12 11 9 10 10 12 12 12 12 13 11 11 9 9 8 9 10 8 10 10 10 10 8 8
3 3 3 3 3 3 3 3 4 4 4 4 5 5 5 6 7 9 9 10 10 11 10 11 11 11 11 11 9 10 9 10 11 12 12 11 9 8 7 7 9 9 7 5 5 5 5
3 2 3 3 3 3 3 3 4 4 4 4 4 5 5 6 7 9 9 8 7 6 7 7 11 11 10 7 7 9 9 10 7 11 12 11 10 6 7 7 4 6 7 9 7 3 4
2 2 2 2 2 3 3 3 4 3 3 3 3 4 5 6 7 9 8 7 8 7 6 8 9 10 10 5 7 7 9 11 8 8 9 8 7 7 6 5 6 6 5 8 4 3 4
2 3 2 3 3 3 3 4 4 4 3 3 4 4 5 4 5 8 10 8 8 8 7 7 7 7 7 7 7 6 6 9 7 7 8 8 7 5 4 5 6 4 5 5 3 2 2
3 3 3 2 3 4 3 4 4 4 3 3 4 4 4 4 5 6 7 8 10 10 8 7 8 7 6 6 7 6 6 6 6 6 8 6 5 7 4 3 4 4 3 3 3 2 1

GFSGBSN_925_temp_123.txt.gz
Temp
10 10 10 10 10 10 10 10 10 10 10 10 10 11 12 12 12 12 12 12 12 12 11 11 11 10 11 10 12 18 17 17 17 18 18 18 18 18 18 18 18 18 19 19 19 18 19
9 9 9 9 9 9 9 9 9 9 9 9 9 10 10 11 11 11 11 12 12 11 11 10 11 10 10 10 17 16 16 16 16 18 18 18 18 18 17 18 17 18 18 17 18 19 19
9 9 9 9 9 8 8 9 8 9 9 9 9 9 9 10 10 11 11 11 10 10 10 9 10 10 9 11 17 16 16 16 16 16 16 18 19 18 18 17 18 18 17 17 18 19 19
8 8 8 8 8 8 8 8 8 8 8 8 8 9 9 9 10 10 11 11 10 9 9 9 10 9 9 14 14 15 16 14 16 17 16 17 18 18 17 17 16 17 16 16 18 20 20
8 8 8 8 8 8 8 8 8 8 8 8 8 8 9 9 9 10 10 10 9 9 9 9 9 9 9 14 13 18 16 15 16 17 17 18 18 17 17 16 14 14 14 15 17 19 18
8 8 8 8 8 8 8 8 8 8 8 8 8 8 8 9 9 9 9 9 8 9 9 8 8 8 10 15 17 18 17 16 16 17 17 17 14 14 13 13 13 14 14 14 17 17 18
9 8 8 8 8 8 7 7 8 8 8 8 8 8 8 8 8 8 9 9 8 7 8 8 9 10 13 16 17 18 18 16 17 17 15 15 14 12 14 13 15 15 14 14 14 16 16
8 8 8 8 8 8 7 8 8 8 8 7 7 7 7 7 7 7 8 7 9 9 8 9 10 10 12 13 12 14 17 16 15 15 15 14 12 14 15 15 15 14 14 14 15 16 16
8 8 8 8 8 8 8 8 8 7 7 7 7 7 7 7 7 7 7 8 9 9 8 10 11 10 11 12 12 13 15 15 16 14 14 13 15 16 15 15 15 14 14 15 15 16 17
8 8 8 8 8 8 8 8 7 7 7 7 7 7 7 7 7 7 7 10 9 9 8 10 11 12 13 13 11 14 15 16 15 14 14 14 16 15 15 15 15 14 16 16 16 15 14
8 8 8 8 8 7 7 7 7 7 7 7 7 7 7 6 6 7 9 10 9 9 9 15 14 15 14 14 16 15 16 16 14 14 14 14 16 15 14 15 16 15 16 16 16 14 13
8 8 7 7 7 7 7 7 7 7 7 7 7 6 6 6 6 9 9 10 9 5 10 15 15 14 13 15 16 15 15 17 16 14 14 14 16 16 15 16 16 17 16 15 13 13 12
7 7 7 7 7 7 7 7 7 7 6 7 7 6 6 6 7 8 9 9 8 7 14 15 15 15 15 14 16 17 15 15 14 13 13 14 14 14 16 15 15 15 14 13 11 11 12
7 7 7 7 7 7 7 7 7 6 6 7 6 6 6 6 8 8 8 9 7 12 12 15 16 16 15 16 16 16 15 14 14 14 12 13 13 15 16 15 14 13 13 11 12 12 12
6 6 6 7 6 6 6 7 7 6 6 6 6 5 5 7 8 7 8 8 8 10 14 14 15 15 14 15 15 15 14 15 14 14 14 12 13 16 16 16 15 14 13 13 12 11 11
6 6 6 6 6 6 6 7 6 6 6 6 5 5 5 8 7 6 7 9 9 12 13 13 13 14 14 15 15 14 13 15 16 14 15 14 13 15 15 16 16 14 13 12 9 11 11
5 5 6 6 6 6 6 6 7 6 6 5 5 2 6 6 6 6 7 7 10 12 13 12 12 13 13 13 14 14 14 15 15 15 13 13 13 13 14 13 13 13 13 12 11 10 10
5 5 5 5 5 5 6 6 6 6 5 5 4 4 5 5 6 6 7 8 11 11 12 12 12 12 11 12 12 13 13 15 13 14 15 13 12 11 13 13 13 13 12 11 10 11 10
4 5 5 5 5 5 5 6 6 5 5 4 3 3 4 5 6 6 8 8 9 10 11 11 11 11 12 12 11 12 13 14 12 12 11 11 9 10 12 12 13 13 12 13 12 10 11
3 4 4 5 5 5 5 5 5 6 5 4 3 4 3 5 6 6 7 8 8 9 9 10 11 11 11 11 10 11 12 13 12 12 12 12 10 11 12 13 12 11 12 13 12 9 10
3 3 3 4 4 5 4 5 5 5 5 5 3 4 5 5 5 6 7 8 8 9 10 10 9 10 10 9 10 9 11 11 12 12 11 10 10 10 11 13 12 11 11 12 11 10 9
3 3 3 3 4 4 4 4 4 4 5 4 3 3 4 5 5 5 6 7 8 9 9 10 10 10 9 9 10 11 11 10 11 11 10 10 9 10 10 12 12 11 10 10 11 11 11
2 2 3 3 3 3 3 4 4 4 4 3 3 3 4 5 5 5 6 7 8 8 10 10 10 9 9 10 9 9 9 10 10 10 9 9 8 7 9 10 10 9 10 10 11 10 10
2 2 2 2 3 3 3 3 3 3 3 4 5 4 3 4 5 6 6 7 7 8 8 9 10 9 11 8 8 8 8 8 9 10 9 8 8 7 8 9 8 9 8 8 8 6 6
2 2 2 2 2 3 3 3 3 3 3 3 4 4 4 4 5 6 6 6 7 8 8 8 9 9 9 8 7 7 7 7 8 9 9 9 7 7 7 7 8 8 6 4 5 6 4
2 2 2 2 2 2 3 3 3 3 3 3 3 4 4 3 4 6 6 6 6 6 6 6 8 9 7 5 6 8 8 8 7 9 10 8 9 7 5 6 3 4 6 6 5 4 3
2 2 2 2 2 2 2 3 3 3 3 3 3 3 3 3 4 5 6 6 6 7 6 7 7 7 7 6 6 7 7 10 8 8 7 6 6 8 6 5 6 6 5 6 4 4 2
2 2 2 2 2 2 2 3 3 3 3 3 3 3 3 3 4 5 5 6 6 5 7 6 6 6 5 6 6 6 5 8 7 7 8 8 7 5 4 4 6 4 4 5 2 -0 1
2 2 2 2 2 2 2 2 3 3 3 3 3 3 3 3 3 4 5 5 6 7 7 5 6 5 5 6 6 6 6 3 6 7 7 7 5 4 6 5 1 2 -0 1 2 0 0

GFSGBSN_925_temp_129.txt.gz
Temp
11 11 11 11 11 11 11 11 11 11 11 11 11 12 12 12 12 12 12 12 12 12 12 12 12 11 13 13 16 16 16 17 17 18 18 18 18 18 19 18 19 19 19 19 19 18 19
10 10 10 10 10 10 10 10 10 10 10 9 9 10 10 10 11 12 11 11 11 11 11 9 11 10 11 15 16 16 16 16 17 17 17 18 18 18 18 18 18 18 18 18 18 20 19
10 10 10 10 10 9 9 9 9 9 9 9 9 9 9 10 10 11 11 11 11 10 10 8 9 9 9 14 16 15 15 16 16 16 16 17 16 18 18 18 17 18 18 18 19 19 20
9 9 10 9 9 9 9 9 8 8 8 8 8 8 9 9 10 10 10 10 10 10 9 9 9 9 11 15 15 16 16 16 16 15 16 16 16 17 18 17 17 18 17 19 19 19 18
9 9 9 9 9 8 8 8 8 8 8 8 8 8 8 9 9 9 9 9 9 9 9 8 8 8 12 15 15 16 15 15 14 13 15 16 17 16 17 16 16 16 18 16 18 18 18
9 9 9 9 8 8 8 8 8 8 8 8 8 8 8 9 9 8 8 8 8 8 8 8 8 10 14 15 15 15 15 15 16 15 16 16 15 16 15 16 19 17 16 16 16 18 18
9 9 8 8 8 8 8 8 8 8 8 8 8 8 8 8 8 8 8 9 9 9 7 11 11 11 12 13 14 15 15 15 16 16 16 15 16 16 17 16 16 16 16 16 16 17 16
9 9 8 8 8 8 8 8 7 7 7 7 7 7 8 8 7 7 8 7 8 7 9 9 9 9 10 11 13 14 15 16 16 16 15 15 15 15 15 15 15 16 15 16 16 16 17
8 8 8 8 8 8 8 8 8 8 7 7 7 7 7 7 7 7 7 8 8 8 8 10 9 9 10 11 11 12 15 15 15 15 15 16 17 15 15 15 15 15 15 15 16 16 16
8 8 8 8 8 8 8 8 8 8 8 7 7 7 7 7 7 7 7 8 8 8 9 12 11 12 11 11 12 12 13 15 15 16 14 15 16 15 15 16 15 14 16 16 15 15 15
8 8 8 8 8 8 8 8 7 8 8 7 7 7 7 7 6 6 7 8 8 8 13 13 12 12 12 12 14 14 13 15 14 14 15 16 15 15 15 16 16 16 16 16 15 15 14
8 7 8 8 8 8 8 8 7 7 7 7 7 7 7 7 7 7 8 8 8 9 12 14 12 12 12 13 14 14 14 15 15 14 14 15 15 15 16 15 15 16 16 15 13 14 14
8 7 7 8 8 8 8 8 8 7 7 7 7 6 6 7 7 8 9 8 9 10 14 14 14 13 13 14 15 14 14 14 14 14 14 14 15 15 16 16 15 15 15 14 14 13 15
7 7 8 8 7 7 8 8 7 7 7 7 7 6 6 6 7 7 8 9 7 12 12 13 14 14 14 15 15 15 14 14 14 14 13 15 15 15 14 16 16 14 15 15 14 14 15
6 7 7 7 7 7 7 7 7 7 7 7 6 5 6 6 7 7 8 7 10 11 12 13 14 15 15 15 15 15 14 14 15 15 16 14 14 15 14 15 16 14 14 15 14 12 13
5 6 6 6 7 7 7 7 7 7 7 6 5 5 5 6 6 7 8 9 9 10 12 12 14 14 13 13 14 14 14 14 15 14 14 15 15 15 15 15 14 15 15 14 13 13 13
5 5 6 6 6 7 7 7 7 7 7 6 5 4 6 6 6 6 7 8 9 10 11 11 12 12 12 13 13 13 14 14 14 14 14 14 13 14 14 14 15 13 14 13 14 12 13
4 5 5 5 5 6 6 7 7 6 6 5 3 4 4 5 4 4 7 8 9 10 11 11 11 11 11 12 12 13 13 14 13 13 14 14 13 13 14 14 13 13 14 14 14 13 12
4 4 5 5 5 5 6 6 6 6 5 5 3 3 4 5 5 4 7 8 8 8 9 10 10 11 11 11 11 11 12 13 13 13 12 11 12 13 13 13 12 11 13 14 13 13 14
3 3 4 5 4 5 5 5 6 5 5 5 2 3 3 4 4 6 6 7 7 8 9 8 9 9 10 10 11 11 11 12 11 12 12 11 11 12 12 14 13 12 12 13 13 12 14
3 3 3 4 4 4 5 5 5 4 5 5 3 4 4 4 4 5 6 7 7 7 8 8 8 9 9 10 10 10 10 10 11 12 11 11 11 11 12 12 12 13 13 13 12 13 13
3 3 3 3 4 3 3 4 5 5 4 4 2 4 4 4 6 5 5 6 7 7 8 8 8 9 8 8 10 10 10 10 10 11 10 9 10 10 11 12 12 12 12 12 13 13 13
2 2 2 2 2 3 3 4 4 4 4 3 2 3 5 4 4 5 6 6 7 7 8 8 8 8 8 9 9 10 10 10 10 10 10 9 9 9 10 10 9 10 11 12 12 13 13
2 2 2 2 2 2 3 3 3 4 4 1 3 3 4 4 5 5 6 6 6 6 6 8 8 7 9 9 9 8 8 9 9 9 10 9 8 9 10 8 10 13 9 9 10 11 10
2 2 2 2 3 3 3 3 3 3 3 3 3 4 3 4 5 5 5 6 6 6 5 6 7 8 8 9 8 7 8 7 9 8 9 10 10 9 9 10 11 11 8 7 9 11 9
1 2 2 2 2 2 3 3 3 3 2 1 2 4 3 3 4 6 5 5 5 5 5 6 7 8 7 7 7 6 8 9 9 9 9 9 10 9 8 9 9 9 7 7 8 9 6
2 2 2 2 2 2 3 3 3 3 2 1 1 2 2 2 3 5 4 4 5 5 5 6 5 6 7 6 6 7 8 10 9 10 9 8 8 8 9 8 9 9 6 7 9 10 5
1 1 2 2 2 2 3 3 3 2 2 2 1 2 2 2 3 4 5 4 4 5 5 6 6 5 5 6 7 8 7 8 9 9 9 10 8 8 8 8 8 6 6 8 7 3 4
1 1 1 1 2 2 2 3 2 2 2 2 1 2 2 2 2 4 5 4 4 4 3 4 5 5 5 6 6 6 6 6 7 8 7 8 9 8 9 9 4 6 4 3 3 4 2

GFSGBSN_925_temp_132.txt.gz
Temp
13 12 12 12 12 12 12 12 11 11 11 11 12 11 12 12 12 12 12 12 12 13 13 13 14 13 14 19 22 16 17 17 18 19 21 23 23 23 24 24 24 24 24 23 23 23 24
11 11 11 10 10 11 11 11 11 11 10 10 10 10 11 12 12 12 11 11 12 12 11 11 10 11 15 19 16 15 16 17 18 20 21 22 22 23 23 23 23 22 22 23 24 24 24
10 10 10 10 10 10 10 10 10 9 9 9 9 9 9 10 10 10 11 11 11 11 10 9 9 10 14 19 16 15 16 17 17 18 21 20 20 22 22 22 21 22 22 24 24 24 24
9 9 10 9 9 9 9 9 9 9 9 9 9 9 9 9 10 10 10 10 11 11 10 9 9 11 17 15 15 15 16 17 16 17 18 18 19 21 21 21 21 22 22 24 23 23 22
9 9 9 9 9 9 9 9 9 8 8 8 8 8 9 9 10 9 10 10 10 10 9 9 10 12 18 16 17 16 16 18 17 16 18 18 20 21 21 22 23 22 24 23 23 23 23
9 9 9 9 9 9 8 8 8 8 8 8 8 8 8 8 9 9 9 10 9 9 9 9 10 12 17 19 17 17 16 17 19 18 19 19 21 21 21 22 24 24 22 22 22 24 22
9 9 9 8 8 8 8 8 8 8 8 8 8 8 8 8 9 8 9 11 13 14 10 17 17 16 18 16 15 18 17 18 20 20 21 19 20 21 24 22 21 21 21 21 23 22 20
9 9 9 9 8 8 8 8 8 8 8 8 8 8 8 8 8 8 8 13 12 10 15 16 14 15 14 14 17 18 17 19 19 21 20 19 20 22 21 19 19 20 20 21 22 21 20
9 9 8 9 8 8 8 8 8 8 8 7 7 7 8 8 7 8 8 10 8 9 14 16 14 14 15 14 17 19 18 19 19 20 20 20 22 20 19 19 19 20 20 21 20 21 21
9 9 8 8 8 8 8 8 8 8 7 7 7 7 8 7 7 8 10 8 8 8 15 18 15 15 14 15 16 16 16 19 19 19 20 19 21 19 19 19 20 19 21 19 19 19 20
8 8 8 8 8 8 8 8 7 7 7 7 7 7 7 7 8 9 8 7 8 10 17 17 15 14 15 15 17 16 16 17 18 18 18 20 18 18 18 19 19 19 19 18 18 19 19
8 8 8 8 8 8 8 8 7 7 7 7 7 7 7 7 7 8 7 7 9 14 16 17 16 15 16 16 17 17 17 17 18 18 18 19 18 19 20 19 19 19 18 19 19 19 18
8 8 8 8 8 8 8 8 8 7 7 7 7 7 7 7 9 7 8 10 12 15 17 17 17 16 17 17 17 18 17 17 18 17 18 18 19 19 19 18 18 18 18 18 19 19 19
7 7 7 8 8 8 8 8 8 7 7 7 7 6 6 6 7 7 9 11 11 17 17 17 17 17 18 18 18 18 18 18 18 18 19 19 19 19 19 19 20 18 19 18 17 19 20
7 7 7 7 7 7 7 7 7 7 7 7 6 5 6 6 7 7 10 10 15 17 16 16 17 17 18 18 18 18 18 19 19 19 18 18 18 19 18 19 19 18 17 20 18 18 17
6 7 7 7 7 7 7 7 7 7 7 6 6 6 7 7 7 7 9 11 14 14 15 16 16 17 17 18 17 18 19 19 17 18 18 18 17 20 19 18 18 18 19 17 17 15 17
6 7 6 6 6 7 7 7 7 7 6 6 6 7 6 6 6 8 9 12 13 13 14 15 16 16 16 16 17 17 18 17 18 16 18 17 17 18 17 18 19 18 17 17 17 17 16
4 5 6 5 5 6 6 6 7 7 6 6 4 5 4 6 7 8 9 11 11 12 13 13 13 14 15 15 15 16 16 16 16 15 15 16 16 16 18 19 18 17 17 18 15 16 14
3 3 5 5 5 5 6 6 6 6 5 5 4 4 3 5 7 7 10 11 11 11 12 13 13 13 15 14 13 15 15 16 15 15 15 16 15 15 16 18 17 15 16 16 13 11 13
2 4 4 4 5 5 5 5 5 6 5 5 3 5 4 4 9 10 10 10 10 10 11 11 12 12 13 13 14 13 14 14 14 14 12 13 14 14 15 17 17 15 16 16 15 13 15
2 4 4 4 5 5 5 5 5 5 5 4 4 6 7 5 5 9 10 10 10 10 11 12 11 12 12 12 13 13 14 14 14 14 14 13 13 14 15 16 15 15 15 16 16 16 14
3 3 3 4 4 4 5 4 4 4 4 4 3 5 6 10 8 7 9 9 10 11 11 10 11 12 12 12 12 13 13 13 13 14 13 13 12 13 13 15 15 15 15 16 16 16 16
2 2 3 3 3 3 4 4 4 4 4 0 2 6 9 9 8 6 8 9 10 11 11 11 11 11 10 12 12 12 12 13 13 12 12 12 12 11 11 14 13 12 15 16 17 17 16
2 2 2 2 3 3 3 3 4 4 4 2 2 7 8 7 7 8 9 9 9 10 10 10 11 10 11 12 12 12 12 12 12 12 13 12 12 11 11 12 10 16 15 14 15 16 16
2 2 2 2 2 2 3 3 3 4 4 3 3 5 7 7 9 9 9 9 9 9 9 9 10 11 11 10 9 8 10 11 12 13 12 13 12 10 10 12 14 15 14 11 11 15 16
1 1 2 2 2 2 2 2 3 3 3 2 2 4 7 7 9 10 9 9 8 8 8 8 9 9 9 8 8 7 9 11 12 12 13 13 12 10 11 10 11 14 12 12 12 12 15
1 1 2 2 2 2 3 2 2 3 3 1 0 1 4 5 8 9 9 8 9 8 8 8 8 8 9 7 7 8 10 12 11 11 12 10 8 9 10 10 13 16 11 11 11 13 10
1 1 2 2 2 2 2 3 3 3 2 1 1 1 4 4 6 8 9 8 8 8 8 8 8 8 6 6 7 9 10 12 12 12 12 12 11 11 10 10 11 11 9 11 10 8 9
2 2 2 1 1 2 2 3 3 3 2 0 0 1 1 3 5 6 7 7 8 8 8 7 8 6 7 6 8 9 8 10 11 10 12 10 12 12 11 13 9 10 8 8 8 8 8

GFSGBSN_925_temp_138.txt.gz
Temp
14 14 14 14 14 14 14 14 13 13 13 13 13 12 12 13 13 13 13 14 14 14 15 15 16 16 17 22 24 20 20 20 20 22 24 26 26 27 27 29 30 29 29 31 29 29 28
14 14 14 14 14 14 14 13 13 11 12 12 12 12 11 12 12 13 13 14 14 14 14 15 15 16 17 20 23 22 21 21 23 24 25 26 27 27 26 27 28 29 29 28 29 29 29
11 13 14 14 13 12 11 10 10 10 11 11 11 10 10 10 11 12 13 14 14 14 14 14 14 13 18 20 23 22 22 21 23 23 25 26 25 25 27 26 28 28 26 27 28 28 28
10 10 10 9 9 9 10 9 9 9 10 10 10 10 10 10 10 11 12 13 14 14 14 14 14 13 18 22 21 21 22 22 22 22 23 23 23 24 24 27 26 25 26 26 29 30 28
10 10 9 9 9 8 8 8 9 9 9 9 9 9 9 10 10 11 11 13 13 13 13 12 12 16 19 20 21 22 21 23 23 22 22 23 23 23 26 24 25 27 26 28 29 29 28
9 10 10 9 9 9 8 8 8 9 9 9 9 9 9 9 10 11 12 13 12 12 13 12 15 17 19 22 23 22 22 22 23 23 22 22 23 23 24 25 24 27 28 28 28 28 28
9 9 9 9 9 8 8 8 8 8 8 8 8 8 8 9 9 10 12 13 14 14 15 20 21 21 23 22 21 22 22 22 23 23 21 23 23 23 25 27 28 27 26 26 27 29 28
9 9 9 9 9 8 8 8 8 8 8 8 8 8 8 8 9 10 10 15 18 15 16 20 21 21 22 22 20 23 23 22 22 22 23 24 22 25 26 27 25 25 24 25 26 28 27
9 9 8 8 8 8 8 8 8 8 8 7 7 8 8 9 9 10 12 16 15 15 16 19 21 22 22 22 20 22 24 22 22 23 23 23 25 26 25 25 24 24 24 24 25 26 26
8 8 8 8 8 8 8 8 8 8 8 8 8 8 8 8 9 13 15 15 14 13 16 20 20 21 21 21 20 22 24 23 22 22 23 24 25 25 25 23 24 22 25 25 24 23 22
8 8 8 8 8 8 8 8 8 8 8 8 8 8 8 8 8 14 13 13 13 13 15 22 20 20 21 19 21 21 23 22 21 22 23 22 24 23 22 23 24 23 24 22 22 22 22
7 7 7 7 8 8 8 8 8 8 8 8 7 7 7 8 9 11 11 11 13 14 15 21 20 18 19 19 20 20 20 21 22 21 22 22 24 24 23 24 24 24 22 22 22 21 19
7 7 7 7 7 8 8 8 7 8 8 8 7 7 7 8 11 11 10 12 13 14 22 21 20 20 20 20 20 20 19 18 19 18 19 21 22 23 23 22 23 22 21 19 20 20 20
6 7 7 7 7 8 8 8 7 7 7 8 7 7 7 8 10 9 10 12 12 17 18 21 21 21 20 22 21 20 20 19 20 22 22 21 20 22 23 22 22 21 21 19 18 19 21
6 6 7 7 7 7 7 7 7 7 7 7 7 6 7 8 8 9 11 10 14 16 21 20 21 20 20 21 22 21 21 21 22 22 21 22 22 24 24 23 23 22 21 23 20 20 19
5 5 6 7 7 7 7 8 8 7 7 6 6 6 7 8 8 8 9 11 15 18 19 19 18 20 20 20 20 20 20 22 22 21 23 22 20 22 23 23 23 21 22 19 19 15 17
3 4 5 6 7 7 7 7 7 7 7 6 6 6 7 8 8 9 9 11 14 18 17 16 17 18 19 19 20 20 20 20 20 20 21 20 20 20 22 18 20 21 20 20 20 19 17
3 4 5 5 6 6 7 7 7 7 7 6 6 6 8 8 8 9 9 12 14 15 16 16 16 16 16 17 17 17 17 16 18 18 18 19 18 18 19 21 22 20 19 19 16 16 14
3 4 4 4 4 5 6 7 7 7 7 6 5 5 7 8 7 8 10 12 13 15 15 16 15 16 16 16 15 17 17 16 18 17 17 17 17 15 17 19 20 20 20 20 20 18 16
3 3 3 4 4 5 6 6 7 7 6 6 4 5 5 6 10 11 11 12 13 15 15 15 15 16 16 15 16 15 16 17 16 17 14 15 16 16 15 17 18 16 18 19 19 15 15
2 2 3 3 3 4 5 5 6 7 6 5 4 6 7 6 7 11 12 13 13 14 15 15 14 15 15 14 14 15 16 17 17 14 15 15 14 15 16 17 17 17 18 18 18 18 15
2 2 2 2 2 3 4 4 4 5 5 5 3 6 10 12 10 10 12 12 13 14 15 14 13 15 15 14 15 15 16 16 16 17 15 16 13 14 14 16 16 16 17 18 18 18 18
2 2 2 2 2 2 3 3 4 4 5 1 2 5 8 10 10 10 11 12 13 15 15 16 15 14 14 15 13 15 15 15 15 14 14 14 12 12 12 15 15 13 15 17 17 18 18
2 2 2 2 1 2 2 3 3 4 4 1 2 5 5 8 9 11 12 13 13 14 14 14 15 14 14 14 14 14 14 15 15 15 15 14 14 13 12 12 10 14 17 18 17 18 19
2 2 2 2 1 2 3 2 3 3 2 1 2 2 3 7 9 10 11 13 13 14 13 13 15 13 13 13 11 11 11 12 13 14 15 15 14 12 11 12 13 15 15 14 14 15 17
2 2 2 2 2 2 3 3 2 3 2 2 2 2 4 4 7 10 10 12 12 12 13 13 13 12 12 10 10 9 10 12 12 14 15 15 14 12 12 11 10 13 16 18 17 13 17
2 2 2 2 2 3 3 3 3 3 3 3 3 3 4 5 8 8 7 7 12 12 11 11 10 10 11 9 8 9 10 12 11 12 13 13 12 11 11 10 12 15 16 17 12 13 14
2 2 2 2 2 2 2 2 3 3 3 3 2 3 3 4 7 10 11 9 6 12 10 11 9 8 9 8 8 9 9 11 11 12 12 13 12 11 10 9 9 15 15 13 12 12 12
1 1 2 2 2 2 2 2 3 3 2 3 2 2 2 3 4 5 6 6 10 13 13 11 11 10 10 9 9 10 9 10 10 9 12 10 12 11 12 12 14 13 12 10 12 12 13

GFSGBSN_925_temp_141.txt.gz
Temp
14 14 14 14 14 14 14 14 14 14 13 13 13 13 13 13 13 13 13 14 14 15 15 16 16 16 17 17 20 21 21 21 21 22 22 22 23 23 22 23 24 27 27 26 27 28 26
13 14 14 14 14 14 14 14 13 14 13 13 12 12 12 12 13 13 13 14 14 14 15 15 15 15 15 17 23 22 21 21 22 22 23 23 24 23 23 23 23 24 24 24 25 25 26
12 13 13 14 14 14 14 14 13 13 11 11 11 11 11 11 12 13 13 14 14 14 14 15 14 13 14 16 22 22 22 22 22 22 22 23 23 21 21 22 24 24 23 23 24 24 24
10 11 11 10 11 10 9 9 9 9 9 9 10 10 10 10 10 11 13 14 14 14 14 14 14 12 13 21 21 22 22 21 22 22 22 23 23 22 21 22 23 23 23 21 23 25 24
10 10 10 10 10 10 9 9 9 8 8 8 8 9 9 10 10 10 12 13 14 14 14 13 13 13 15 20 20 22 22 22 23 22 22 22 22 20 21 19 19 21 20 21 23 25 23
9 10 10 10 10 10 10 9 9 9 8 8 8 8 9 9 9 10 12 14 14 12 13 12 12 14 16 20 22 22 22 22 22 21 21 21 19 18 19 18 18 21 21 22 23 25 24
9 9 9 9 9 8 8 8 8 8 8 8 8 8 8 9 10 10 13 14 13 11 12 14 15 16 21 22 22 21 21 22 22 21 18 19 17 17 19 20 22 22 22 22 23 24 25
9 9 9 9 9 9 9 8 8 8 7 7 7 7 7 8 9 10 10 10 15 14 12 16 17 17 19 20 20 21 22 20 20 18 19 19 18 21 23 23 23 23 22 20 22 24 24
9 9 9 9 9 9 8 8 8 8 8 7 7 8 8 8 10 11 11 13 14 14 11 16 17 19 19 21 20 19 20 20 20 19 20 19 21 23 23 23 22 22 21 21 21 22 22
8 9 9 9 9 9 8 8 8 8 8 7 7 7 8 8 10 11 12 13 14 13 10 16 18 20 20 21 19 21 22 20 20 19 19 19 22 22 22 22 22 20 23 22 22 20 18
8 7 8 8 8 8 8 8 8 8 8 7 7 7 8 8 8 11 11 13 13 13 11 21 19 21 20 19 20 20 21 20 19 19 19 19 22 21 21 22 22 21 22 21 21 18 18
8 7 7 7 8 8 8 8 8 8 8 8 7 7 7 8 8 11 11 12 12 11 11 19 18 18 18 18 19 19 20 20 20 19 19 18 21 21 21 22 22 23 21 20 20 18 15
7 7 7 7 7 7 7 8 8 7 7 8 7 7 8 8 9 10 11 11 10 11 18 19 18 18 18 17 18 18 18 16 16 16 16 19 19 21 22 20 21 21 18 15 15 15 14
6 7 7 7 7 7 7 7 7 7 7 7 7 7 7 8 9 9 10 9 9 14 15 19 20 19 18 19 18 19 17 16 17 18 18 17 17 19 21 20 19 18 17 13 16 15 16
5 6 6 7 7 7 7 7 7 7 7 7 6 6 6 8 8 9 8 8 11 14 18 17 18 18 18 19 20 19 18 17 19 19 17 19 19 22 21 21 20 19 17 19 17 16 14
4 5 5 5 6 7 7 7 7 7 7 6 6 6 6 8 8 8 8 10 12 15 16 17 15 18 18 19 19 19 19 18 19 18 19 18 17 21 21 20 20 19 20 15 13 15 14
4 4 4 5 5 6 7 7 7 7 7 7 6 5 6 7 8 7 7 9 12 14 14 16 15 15 16 16 17 17 18 17 18 18 18 17 17 16 19 18 18 19 18 17 16 14 13
3 3 3 4 5 5 6 7 7 7 7 7 5 5 7 7 5 5 7 10 12 13 15 15 15 15 14 15 15 16 16 16 16 16 16 17 16 14 17 19 19 19 18 17 12 13 12
3 3 3 3 4 5 5 6 6 7 6 6 4 5 7 7 6 5 8 10 11 11 13 14 14 15 15 14 13 15 15 16 16 15 14 14 13 13 14 17 18 18 17 15 15 13 13
3 3 3 3 3 4 4 4 5 6 6 6 3 5 5 6 6 8 8 9 10 12 12 14 14 15 14 13 14 14 14 14 16 16 14 15 14 13 12 14 15 14 16 17 15 10 13
3 2 2 3 3 3 4 4 4 5 6 6 3 5 6 6 6 7 9 10 10 10 12 14 14 13 13 12 13 13 14 14 15 15 14 13 12 13 14 15 15 15 16 16 15 15 14
2 2 2 2 2 3 3 3 4 4 6 6 3 4 6 7 8 7 8 9 10 11 12 13 12 13 13 12 13 13 14 14 13 13 12 13 11 12 12 14 15 14 15 15 15 15 15
2 2 2 2 2 2 3 3 3 4 5 5 0 3 6 8 7 7 7 9 10 12 13 14 13 12 12 13 13 13 12 12 12 13 10 10 8 9 10 13 12 11 13 14 14 15 15
2 2 2 2 2 2 3 3 3 3 4 2 0 4 3 6 6 8 9 10 10 11 11 13 12 12 12 12 12 12 13 12 12 12 13 11 10 9 8 10 8 12 14 15 14 15 14
2 2 2 2 2 2 2 2 2 2 3 1 2 2 3 6 7 9 9 10 11 11 12 12 11 11 10 11 9 9 8 11 11 12 12 12 10 8 9 9 11 12 13 11 11 12 13
2 2 2 2 2 2 2 2 2 1 2 2 0 1 1 4 6 10 10 10 9 10 9 10 10 10 10 5 5 7 8 10 9 12 13 12 10 8 8 8 5 11 13 14 13 10 13
2 2 2 2 2 2 2 2 2 1 2 1 1 1 3 4 4 8 6 7 7 8 6 8 6 9 9 3 3 5 7 10 8 9 9 8 7 9 9 9 9 13 13 14 10 10 11
2 1 2 2 2 2 2 2 1 1 1 2 2 1 3 4 5 6 7 6 5 5 5 7 6 5 3 4 4 4 5 7 8 9 9 9 8 6 8 8 8 13 13 11 9 9 10
1 1 1 2 2 2 2 2 2 1 2 2 3 2 3 3 3 4 6 6 7 7 5 5 7 7 4 3 3 3 5 4 8 6 10 6 7 6 8 7 9 10 10 9 10 9 11